UAL2851 KSFO-MZBZ

Flight info

Callsign UAL2851
Flight time N/A
Altitude 33000
Route WESLA5 KAYEX DCT LOSHN DCT BOILE DCT BLH/N0452F350 DCT BXK Q180 WOBUG DCT ELP DCT KOBLE DCT DLF DCT BRO DCT VESKO UT22 GABAT DCT VIKMO DCT DASMO DASMO1A
Aircraft B739/M-SDE2E3FGHIRWXY/LB1

Departure

Time N/A
Airport San Francisco International Airport (KSFO)

Arrival

Time 2026-04-30 00:29
Airport Philip S. W. Goldson International Airport (MZBZ)
Time Latitude Longitude Altitude Speed Heading
2026-04-29 22:31 28.31226 -99.70373 32806 ft 486 kts 143°
2026-04-29 22:32 28.28694 -99.67830 32820 ft 486 kts 143°
2026-04-29 22:32 28.23627 -99.62746 32815 ft 487 kts 143°
2026-04-29 22:33 28.18547 -99.57656 32807 ft 487 kts 143°
2026-04-29 22:33 28.13463 -99.52569 32807 ft 488 kts 143°
2026-04-29 22:34 28.08361 -99.47472 32820 ft 492 kts 143°
2026-04-29 22:34 28.03175 -99.42301 32802 ft 501 kts 143°
2026-04-29 22:35 27.97911 -99.37057 32830 ft 507 kts 143°
2026-04-29 22:35 27.92585 -99.31755 32829 ft 513 kts 143°
2026-04-29 22:36 27.87190 -99.26391 32848 ft 519 kts 143°
2026-04-29 22:36 27.84472 -99.23692 33031 ft 520 kts 143°
2026-04-29 22:36 27.81756 -99.20996 33319 ft 519 kts 143°
2026-04-29 22:36 27.79046 -99.18306 33635 ft 517 kts 143°
2026-04-29 22:37 27.76347 -99.15630 33920 ft 516 kts 143°
2026-04-29 22:37 27.73661 -99.12968 34203 ft 513 kts 143°
2026-04-29 22:37 27.70976 -99.10311 34427 ft 513 kts 143°
2026-04-29 22:37 27.68287 -99.07654 34574 ft 515 kts 143°
2026-04-29 22:38 27.65584 -99.04986 34672 ft 516 kts 143°
2026-04-29 22:38 27.62887 -99.02323 34791 ft 515 kts 143°
2026-04-29 22:38 27.60188 -98.99661 34818 ft 517 kts 143°
2026-04-29 22:39 27.54804 -98.94354 34828 ft 517 kts 143°
2026-04-29 22:39 27.49385 -98.89018 34813 ft 517 kts 143°
2026-04-29 22:40 27.44851 -98.84559 34814 ft 516 kts 143°
2026-04-29 22:40 27.38565 -98.78387 34796 ft 516 kts 143°
2026-04-29 22:41 27.33155 -98.73083 34797 ft 516 kts 143°
2026-04-29 22:41 27.28657 -98.68680 34796 ft 516 kts 143°
2026-04-29 22:42 27.23241 -98.63383 34799 ft 516 kts 143°
2026-04-29 22:42 27.17819 -98.58087 34804 ft 516 kts 143°
2026-04-29 22:43 27.12396 -98.52797 34815 ft 516 kts 143°
2026-04-29 22:43 27.06973 -98.47515 34816 ft 517 kts 143°
2026-04-29 22:44 27.01537 -98.42227 34812 ft 517 kts 143°
2026-04-29 22:44 26.96102 -98.36947 34815 ft 517 kts 143°
2026-04-29 22:45 26.90663 -98.31670 34801 ft 518 kts 143°
2026-04-29 22:45 26.84330 -98.25534 34817 ft 518 kts 143°
2026-04-29 22:46 26.79763 -98.21115 34817 ft 518 kts 143°
2026-04-29 22:46 26.74304 -98.15840 34814 ft 519 kts 143°
2026-04-29 22:47 26.68873 -98.10599 34807 ft 519 kts 143°
2026-04-29 22:47 26.63404 -98.05327 34793 ft 519 kts 143°
2026-04-29 22:48 26.57941 -98.00068 34801 ft 518 kts 143°
2026-04-29 22:48 26.52487 -97.94825 34798 ft 518 kts 143°
2026-04-29 22:49 26.47025 -97.89582 34808 ft 517 kts 143°
2026-04-29 22:49 26.41566 -97.84347 34809 ft 517 kts 143°
2026-04-29 22:50 26.36107 -97.79119 34818 ft 517 kts 143°
2026-04-29 22:50 26.30646 -97.73896 34810 ft 515 kts 143°
2026-04-29 22:51 26.25222 -97.68715 34809 ft 513 kts 143°
2026-04-29 22:51 26.17152 -97.61019 34812 ft 510 kts 143°
2026-04-29 22:52 26.11758 -97.55884 34813 ft 510 kts 143°
2026-04-29 22:52 26.06372 -97.50761 34826 ft 509 kts 143°
2026-04-29 22:53 26.00996 -97.45654 34842 ft 508 kts 143°
2026-04-29 22:53 25.95614 -97.40548 34840 ft 508 kts 143°
2026-04-29 22:54 25.90649 -97.34946 34831 ft 513 kts 128°
2026-04-29 22:54 25.86641 -97.28376 34839 ft 514 kts 126°
2026-04-29 22:55 25.82690 -97.21772 34840 ft 514 kts 126°
2026-04-29 22:55 25.78690 -97.15192 34836 ft 514 kts 126°
2026-04-29 22:56 25.74660 -97.08642 34845 ft 514 kts 126°
2026-04-29 22:56 25.70620 -97.02107 34829 ft 514 kts 126°
2026-04-29 22:57 25.66577 -96.95574 34828 ft 514 kts 126°
2026-04-29 22:57 25.62534 -96.89044 34834 ft 514 kts 126°
2026-04-29 22:58 25.58487 -96.82515 34831 ft 514 kts 126°
2026-04-29 22:58 25.54434 -96.75984 34835 ft 514 kts 126°
2026-04-29 22:59 25.50375 -96.69454 34833 ft 515 kts 126°
2026-04-29 22:59 25.46334 -96.62961 34840 ft 515 kts 125°
2026-04-29 23:00 25.42271 -96.56443 34825 ft 514 kts 125°
2026-04-29 23:00 25.38215 -96.49943 34839 ft 513 kts 125°
2026-04-29 23:01 25.34157 -96.43449 34825 ft 513 kts 125°
2026-04-29 23:01 25.30090 -96.36951 34854 ft 514 kts 125°
2026-04-29 23:02 25.26020 -96.30457 34846 ft 515 kts 125°
2026-04-29 23:02 25.21936 -96.23949 34849 ft 516 kts 125°
2026-04-29 23:03 25.17845 -96.17440 34843 ft 516 kts 125°
2026-04-29 23:03 25.13749 -96.10930 34836 ft 515 kts 125°
2026-04-29 23:04 25.09655 -96.04432 34852 ft 516 kts 124°
2026-04-29 23:04 25.05550 -95.97927 34860 ft 517 kts 124°
2026-04-29 23:05 25.01438 -95.91418 34859 ft 517 kts 124°
2026-04-29 23:05 24.97317 -95.84905 34853 ft 518 kts 124°
2026-04-29 23:06 24.93191 -95.78392 34852 ft 519 kts 125°
2026-04-29 23:06 24.89060 -95.71881 34851 ft 518 kts 124°
2026-04-29 23:07 24.84923 -95.65369 34845 ft 519 kts 124°
2026-04-29 23:07 24.80786 -95.58866 34863 ft 519 kts 124°
2026-04-29 23:08 24.76643 -95.52361 34856 ft 519 kts 124°
2026-04-29 23:08 24.72523 -95.45902 34858 ft 519 kts 124°
2026-04-29 23:09 24.68371 -95.39402 34854 ft 519 kts 124°
2026-04-29 23:09 24.64217 -95.32907 34861 ft 519 kts 124°
2026-04-29 23:10 24.60053 -95.26404 34869 ft 520 kts 124°
2026-04-29 23:10 24.55885 -95.19904 34870 ft 521 kts 124°
2026-04-29 23:11 24.51706 -95.13396 34874 ft 522 kts 124°
2026-04-29 23:11 24.47515 -95.06877 34867 ft 523 kts 124°
2026-04-29 23:12 24.43320 -95.00361 34870 ft 523 kts 124°
2026-04-29 23:12 24.39144 -94.93884 34862 ft 523 kts 124°
2026-04-29 23:13 24.34934 -94.87363 34872 ft 524 kts 124°
2026-04-29 23:13 24.30720 -94.80843 34859 ft 524 kts 124°
2026-04-29 23:14 24.26504 -94.74328 34866 ft 523 kts 124°
2026-04-29 23:14 24.22299 -94.67840 34863 ft 522 kts 124°
2026-04-29 23:15 24.18098 -94.61363 34871 ft 521 kts 124°
2026-04-29 23:15 24.13949 -94.54860 34873 ft 520 kts 122°
2026-04-29 23:16 24.10121 -94.48147 34882 ft 520 kts 120°
2026-04-29 23:16 24.06374 -94.41383 34881 ft 520 kts 120°
2026-04-29 23:17 24.02582 -94.34636 34883 ft 520 kts 120°
2026-04-29 23:17 23.98762 -94.27917 34874 ft 520 kts 120°
2026-04-29 23:18 23.94940 -94.21213 34882 ft 519 kts 120°
2026-04-29 23:18 23.91114 -94.14503 34880 ft 519 kts 120°
2026-04-29 23:19 23.87293 -94.07807 34890 ft 519 kts 120°
2026-04-29 23:19 23.83471 -94.01117 34888 ft 519 kts 120°
2026-04-29 23:20 23.79451 -93.94631 34885 ft 520 kts 130°
2026-04-29 23:20 23.74156 -93.89276 34896 ft 520 kts 141°
2026-04-29 23:21 23.68562 -93.84266 34884 ft 520 kts 140°
2026-04-29 23:21 23.62987 -93.79234 34893 ft 520 kts 140°
2026-04-29 23:22 23.57443 -93.74166 34889 ft 520 kts 140°
2026-04-29 23:22 23.51912 -93.69087 34891 ft 520 kts 140°
2026-04-29 23:23 23.46380 -93.64013 34892 ft 520 kts 140°
2026-04-29 23:23 23.40847 -93.58948 34893 ft 520 kts 140°
2026-04-29 23:24 23.35314 -93.53892 34897 ft 519 kts 139°
2026-04-29 23:24 23.29782 -93.48842 34895 ft 519 kts 139°
2026-04-29 23:25 23.24257 -93.43805 34893 ft 518 kts 139°
2026-04-29 23:25 23.18738 -93.38777 34896 ft 518 kts 139°
2026-04-29 23:26 23.13213 -93.33750 34891 ft 517 kts 139°
2026-04-29 23:26 23.07727 -93.28765 34893 ft 517 kts 139°
2026-04-29 23:27 23.02214 -93.23760 34897 ft 516 kts 139°
2026-04-29 23:27 22.96705 -93.18764 34896 ft 516 kts 139°
2026-04-29 23:28 22.91195 -93.13773 34895 ft 515 kts 139°
2026-04-29 23:28 22.85689 -93.08792 34895 ft 515 kts 139°
2026-04-29 23:29 22.80188 -93.03819 34901 ft 515 kts 139°
2026-04-29 23:29 22.74683 -92.98849 34895 ft 515 kts 139°
2026-04-29 23:30 22.70114 -92.94728 34898 ft 514 kts 139°
2026-04-29 23:30 22.64617 -92.89775 34902 ft 514 kts 139°
2026-04-29 23:31 22.59118 -92.84825 34903 ft 513 kts 139°
2026-04-29 23:31 22.53630 -92.79891 34900 ft 513 kts 139°
2026-04-29 23:32 22.48136 -92.74956 34897 ft 513 kts 139°
2026-04-29 23:32 22.42643 -92.70028 34895 ft 513 kts 139°
2026-04-29 23:33 22.37152 -92.65107 34900 ft 512 kts 139°
2026-04-29 23:33 22.31706 -92.60231 34897 ft 512 kts 139°
2026-04-29 23:34 22.26222 -92.55326 34901 ft 511 kts 139°
2026-04-29 23:34 22.20743 -92.50431 34899 ft 511 kts 139°
2026-04-29 23:35 22.15265 -92.45542 34901 ft 511 kts 139°
2026-04-29 23:35 22.09779 -92.40651 34900 ft 511 kts 138°
2026-04-29 23:36 22.04311 -92.35781 34895 ft 510 kts 138°
2026-04-29 23:36 21.98839 -92.30912 34897 ft 509 kts 138°
2026-04-29 23:37 21.93373 -92.26054 34909 ft 509 kts 138°
2026-04-29 23:37 21.87910 -92.21204 34902 ft 508 kts 138°
2026-04-29 23:38 21.82453 -92.16364 34903 ft 508 kts 138°
2026-04-29 23:38 21.77001 -92.11533 34899 ft 507 kts 138°
2026-04-29 23:39 21.71560 -92.06717 34899 ft 506 kts 138°
2026-04-29 23:39 21.66128 -92.01913 34901 ft 506 kts 138°
2026-04-29 23:40 21.60691 -91.97110 34905 ft 505 kts 138°
2026-04-29 23:40 21.55299 -91.92351 34903 ft 505 kts 138°
2026-04-29 23:41 21.49876 -91.87570 34905 ft 504 kts 138°
2026-04-29 23:41 21.44448 -91.82790 34899 ft 504 kts 138°
2026-04-29 23:42 21.39023 -91.78016 34899 ft 504 kts 138°
2026-04-29 23:42 21.33601 -91.73250 34899 ft 504 kts 138°
2026-04-29 23:43 21.28174 -91.68484 34900 ft 504 kts 138°
2026-04-29 23:43 21.22743 -91.63720 34900 ft 505 kts 138°
2026-04-29 23:44 21.17308 -91.58956 34897 ft 505 kts 138°
2026-04-29 23:44 21.11865 -91.54191 34897 ft 505 kts 138°
2026-04-29 23:45 21.06435 -91.49441 34899 ft 504 kts 138°
2026-04-29 23:45 21.01010 -91.44700 34894 ft 503 kts 138°
2026-04-29 23:46 20.95591 -91.39969 34894 ft 502 kts 138°
2026-04-29 23:46 20.90219 -91.35282 34898 ft 501 kts 138°
2026-04-29 23:47 20.84781 -91.30542 34892 ft 501 kts 138°
2026-04-29 23:47 20.79417 -91.25861 34888 ft 500 kts 137°
2026-04-29 23:48 20.74132 -91.21046 34893 ft 499 kts 136°
2026-04-29 23:48 20.68893 -91.16186 34891 ft 498 kts 136°
2026-04-29 23:49 20.63651 -91.11343 34895 ft 498 kts 136°
2026-04-29 23:49 20.58393 -91.06515 34889 ft 498 kts 136°
2026-04-29 23:50 20.53142 -91.01707 34889 ft 497 kts 136°
2026-04-29 23:51 20.45261 -90.94499 34886 ft 497 kts 136°
2026-04-29 23:51 20.40013 -90.89704 34883 ft 496 kts 136°
2026-04-29 23:52 20.34772 -90.84919 34887 ft 496 kts 136°
2026-04-29 23:52 20.29530 -90.80138 34883 ft 496 kts 136°
2026-04-29 23:53 20.24289 -90.75362 34887 ft 496 kts 136°
2026-04-29 23:53 20.19047 -90.70590 34880 ft 495 kts 136°
2026-04-29 23:54 20.13809 -90.65825 34880 ft 495 kts 136°
2026-04-29 23:54 20.08578 -90.61072 34874 ft 494 kts 136°
2026-04-29 23:55 20.03353 -90.56329 34863 ft 493 kts 136°
2026-04-29 23:55 19.98135 -90.51595 34864 ft 493 kts 136°
2026-04-29 23:56 19.92953 -90.46899 34861 ft 492 kts 136°
2026-04-29 23:56 19.87742 -90.42180 34864 ft 492 kts 136°
2026-04-29 23:57 19.82526 -90.37461 34865 ft 492 kts 136°
2026-04-29 23:57 19.77309 -90.32746 34867 ft 492 kts 136°
2026-04-29 23:58 19.72097 -90.28039 34860 ft 492 kts 136°
2026-04-29 23:58 19.66888 -90.23340 34861 ft 492 kts 136°
2026-04-29 23:59 19.61678 -90.18644 34860 ft 491 kts 136°
2026-04-29 23:59 19.56467 -90.13950 34866 ft 491 kts 136°
2026-04-30 00:00 19.51254 -90.09259 34872 ft 491 kts 136°
2026-04-30 00:00 19.46044 -90.04574 34874 ft 491 kts 136°
2026-04-30 00:01 19.40862 -89.99920 34880 ft 491 kts 136°
2026-04-30 00:01 19.35653 -89.95245 34881 ft 491 kts 136°
2026-04-30 00:02 19.30441 -89.90571 34876 ft 491 kts 136°
2026-04-30 00:02 19.25230 -89.85903 34879 ft 490 kts 136°
2026-04-30 00:03 19.20029 -89.81246 34878 ft 490 kts 136°
2026-04-30 00:03 19.14822 -89.76590 34882 ft 490 kts 136°
2026-04-30 00:04 19.09643 -89.71963 34863 ft 478 kts 136°
2026-04-30 00:04 19.07139 -89.69733 34864 ft 462 kts 136°
2026-04-30 00:04 19.04713 -89.67573 34675 ft 452 kts 136°
2026-04-30 00:04 19.02328 -89.65445 34334 ft 445 kts 136°
2026-04-30 00:05 18.99966 -89.63337 33879 ft 443 kts 136°
2026-04-30 00:05 18.97620 -89.61242 33390 ft 440 kts 136°
2026-04-30 00:05 18.95294 -89.59167 32909 ft 437 kts 136°
2026-04-30 00:05 18.92981 -89.57103 32454 ft 434 kts 135°
2026-04-30 00:06 18.90679 -89.55053 31997 ft 431 kts 135°
2026-04-30 00:06 18.88393 -89.53017 31558 ft 429 kts 135°
2026-04-30 00:06 18.86120 -89.50993 31117 ft 426 kts 135°
2026-04-30 00:06 18.83859 -89.48981 30685 ft 424 kts 135°
2026-04-30 00:07 18.81606 -89.46977 30227 ft 423 kts 135°
2026-04-30 00:07 18.79357 -89.44976 29766 ft 421 kts 135°
2026-04-30 00:07 18.77121 -89.42990 29282 ft 419 kts 135°
2026-04-30 00:07 18.74927 -89.41041 28836 ft 416 kts 135°
2026-04-30 00:08 18.72718 -89.39080 28394 ft 413 kts 135°
2026-04-30 00:08 18.70529 -89.37136 27969 ft 410 kts 135°
2026-04-30 00:08 18.68355 -89.35208 27542 ft 407 kts 135°
2026-04-30 00:08 18.66197 -89.33293 27128 ft 404 kts 135°
2026-04-30 00:09 18.64048 -89.31387 26705 ft 402 kts 135°
2026-04-30 00:09 18.61915 -89.29495 26296 ft 400 kts 135°
2026-04-30 00:09 18.59789 -89.27611 25886 ft 398 kts 135°
2026-04-30 00:09 18.57679 -89.25741 25479 ft 396 kts 135°
2026-04-30 00:10 18.55574 -89.23876 25054 ft 395 kts 135°
2026-04-30 00:10 18.53471 -89.22014 24633 ft 394 kts 135°
2026-04-30 00:10 18.51376 -89.20159 24218 ft 393 kts 135°
2026-04-30 00:10 18.49277 -89.18302 23795 ft 393 kts 135°
2026-04-30 00:11 18.47190 -89.16455 23358 ft 392 kts 135°
2026-04-30 00:11 18.45102 -89.14609 22890 ft 391 kts 136°
2026-04-30 00:11 18.43029 -89.12776 22465 ft 388 kts 136°
2026-04-30 00:11 18.40965 -89.10953 22048 ft 386 kts 136°
2026-04-30 00:12 18.38916 -89.09143 21641 ft 383 kts 136°
2026-04-30 00:12 18.36884 -89.07349 21225 ft 381 kts 136°
2026-04-30 00:12 18.34860 -89.05562 20828 ft 378 kts 136°
2026-04-30 00:12 18.32847 -89.03786 20425 ft 376 kts 136°
2026-04-30 00:13 18.30847 -89.02021 20024 ft 374 kts 136°
2026-04-30 00:13 18.28854 -89.00263 19607 ft 373 kts 137°
2026-04-30 00:13 18.26870 -88.98513 19200 ft 371 kts 137°
2026-04-30 00:13 18.24894 -88.96771 18783 ft 370 kts 137°
2026-04-30 00:14 18.22922 -88.95033 18375 ft 369 kts 137°
2026-04-30 00:14 18.20960 -88.93305 17930 ft 367 kts 137°
2026-04-30 00:14 18.19006 -88.91584 17505 ft 365 kts 137°
2026-04-30 00:14 18.17073 -88.89883 17090 ft 362 kts 137°
2026-04-30 00:15 18.15148 -88.88188 16692 ft 359 kts 137°
2026-04-30 00:15 18.13312 -88.86573 16361 ft 354 kts 137°
2026-04-30 00:15 18.11529 -88.85005 16000 ft 351 kts 137°
2026-04-30 00:15 18.09667 -88.83366 15615 ft 349 kts 137°
2026-04-30 00:16 18.07810 -88.81733 15218 ft 346 kts 137°
2026-04-30 00:16 18.05969 -88.80114 14830 ft 344 kts 137°
2026-04-30 00:16 18.04732 -88.79027 14565 ft 342 kts 137°
2026-04-30 00:16 18.02913 -88.77430 14176 ft 340 kts 137°
2026-04-30 00:17 18.01108 -88.75874 13770 ft 340 kts 139°
2026-04-30 00:17 17.99201 -88.74350 13332 ft 339 kts 140°
2026-04-30 00:17 17.97317 -88.72883 12907 ft 337 kts 140°
2026-04-30 00:17 17.95442 -88.71427 12496 ft 334 kts 140°
2026-04-30 00:18 17.93610 -88.69997 12101 ft 331 kts 140°
2026-04-30 00:18 17.91769 -88.68555 11706 ft 329 kts 140°
2026-04-30 00:18 17.89942 -88.67118 11314 ft 326 kts 140°
2026-04-30 00:18 17.88135 -88.65695 10928 ft 324 kts 140°
2026-04-30 00:19 17.86339 -88.64279 10540 ft 322 kts 140°
2026-04-30 00:19 17.84552 -88.62869 10158 ft 320 kts 140°
2026-04-30 00:19 17.82790 -88.61480 9901 ft 307 kts 140°
2026-04-30 00:19 17.81148 -88.60188 9892 ft 285 kts 140°
2026-04-30 00:20 17.79605 -88.58973 9702 ft 273 kts 140°
2026-04-30 00:20 17.78086 -88.57774 9348 ft 273 kts 140°
2026-04-30 00:20 17.76575 -88.56582 9066 ft 270 kts 140°
2026-04-30 00:20 17.75073 -88.55402 8755 ft 269 kts 142°
2026-04-30 00:21 17.73355 -88.54612 8399 ft 275 kts 167°
2026-04-30 00:21 17.71443 -88.54459 8119 ft 275 kts 175°
2026-04-30 00:21 17.69528 -88.54421 7820 ft 275 kts 176°
2026-04-30 00:21 17.67626 -88.54391 7512 ft 271 kts 176°
2026-04-30 00:22 17.65755 -88.54356 7045 ft 271 kts 176°
2026-04-30 00:22 17.63863 -88.54311 6618 ft 269 kts 175°
2026-04-30 00:22 17.62008 -88.54262 6280 ft 264 kts 175°
2026-04-30 00:22 17.60228 -88.54214 6045 ft 254 kts 175°
2026-04-30 00:23 17.58493 -88.54168 5886 ft 241 kts 175°
2026-04-30 00:23 17.56855 -88.54080 5620 ft 234 kts 167°
2026-04-30 00:23 17.55290 -88.53700 5189 ft 230 kts 163°
2026-04-30 00:23 17.53729 -88.53298 4689 ft 231 kts 163°
2026-04-30 00:24 17.52169 -88.52911 4198 ft 230 kts 163°
2026-04-30 00:24 17.50723 -88.52298 3765 ft 220 kts 135°
2026-04-30 00:24 17.50028 -88.50959 3488 ft 211 kts 95°
2026-04-30 00:24 17.50112 -88.49440 3248 ft 208 kts 84°
2026-04-30 00:25 17.50261 -88.47969 2990 ft 199 kts 84°
2026-04-30 00:25 17.50482 -88.46561 2733 ft 192 kts 79°
2026-04-30 00:25 17.50758 -88.45221 2495 ft 185 kts 79°
2026-04-30 00:25 17.51037 -88.43942 2266 ft 174 kts 78°
2026-04-30 00:26 17.51297 -88.42757 2077 ft 159 kts 79°
2026-04-30 00:26 17.51533 -88.41676 1848 ft 146 kts 78°
2026-04-30 00:26 17.51758 -88.40646 1662 ft 144 kts 78°
2026-04-30 00:26 17.51979 -88.39634 1487 ft 142 kts 77°
2026-04-30 00:27 17.52198 -88.38631 1291 ft 143 kts 78°
2026-04-30 00:27 17.52424 -88.37595 1115 ft 148 kts 77°
2026-04-30 00:27 17.52653 -88.36552 928 ft 147 kts 77°
2026-04-30 00:27 17.52875 -88.35511 741 ft 146 kts 79°
2026-04-30 00:28 17.53101 -88.34487 555 ft 146 kts 76°
2026-04-30 00:28 17.53327 -88.33457 355 ft 143 kts 78°
2026-04-30 00:28 17.53553 -88.32438 173 ft 144 kts 78°
2026-04-30 00:28 17.53778 -88.31405 27 ft 140 kts 78°
2026-04-30 00:29 17.53964 -88.30551 17 ft 91 kts 77°
2026-04-30 00:29 17.54048 -88.30129 16 ft 29 kts 86°
2026-04-30 00:29 17.54057 -88.30081 17 ft 0 kts 44°
2026-04-30 00:29 17.54071 -88.30079 16 ft 4 kts 332°
2026-04-30 00:30 17.54058 -88.30152 19 ft 19 kts 248°
2026-04-30 00:30 17.54018 -88.30318 18 ft 29 kts 256°
2026-04-30 00:30 17.53968 -88.30538 18 ft 31 kts 257°
2026-04-30 00:30 17.53920 -88.30753 17 ft 29 kts 257°
2026-04-30 00:31 17.53870 -88.30877 18 ft 13 kts 195°
2026-04-30 00:31 17.53780 -88.30863 17 ft 13 kts 166°
2026-04-30 00:31 17.53694 -88.30840 16 ft 13 kts 168°
2026-04-30 00:31 17.53662 -88.30833 16 ft 0 kts 169°